OBJECT M, 47424

Orbit data source: Space-Track

You're viewing an Uncataloged Satellite

Recently launched and/or uncataloged satellites may have evolving metadata. Metadata may include but not limited to: Owner, Maufacturer, Bus, Motor, and Mission.

OBJECT M, 47424 is a satellite in SSO that was launched on Sun, 24 Jan 2021 UTC launched from the Air Force Eastern Test Range (AFETR). Unknown objects in Earth's orbit typically refer to objects detected orbiting the Earth but have not yet been identified or cataloged. These objects could be anything from previously untracked satellites, spent rocket stages, debris from satellite collisions, or even natural meteoroids temporarily captured by Earth's gravity.

Loading next visibility...
Identifier
47424, 2021-006M
Orbit
SSO
Country
Flag of TBDTBD
Related business
Manufacturer
SpaceX/Seattle
Mission
Spacecraft
Bus & Motor
Unknown
Mass
~100 kg wet, ~100 kg dry
Launch date (UTC)
2021-01-24 (5 years ago)
Launch vehicle
Unknown
Launch site
Air Force Eastern Test Range (AFETR)
Object type
Unknown
Shape & HBR
Cyl, Unknown HBR
Radar Cross Section
0.110 m², Medium (>0.1 m² and < 1m²)

Expand to show TLE details & history
Last TLE update: 8 hours ago

TLE from 8 hours ago
0 OBJECT M
1 47424U 21006M   26036.91645123  .00011512  00000-0  37634-3 0  9994
2 47424  97.2439  85.4980 0009357 318.5721  41.4811 15.31836426279491
Epoch: 2026-02-05T21:59Z
TLE epoch observation values (Epoch: 2026-02-05T21:59:41.386Z)
Latitude
0.00002°
Longitude
-20.48626°
Altitude
468.645 km
Speed
7.635 km/s
True Right ascension
05h 41m 59s
True Declination
0° 00' 00"
Sunlit
Object was in full shadow at epoch
Visualization orbit readout
Latitude
Unknown
Longitude
Unknown
Altitude
Unknown
Speed
Unknown
Apparent Right ascension
Unknown
Apparent Declination
Unknown
Sunlit
N/A
Visualization observer readout
Local Sidereal Time
07:37:32
Azimuth
Unknown
Elevation
Unknown
Doppler factor
Unknown
Orbital elements
Apogee altitude
473.682 km
Perigee altitude
460.871 km
Semi-major axis
6,845.414 km
Eccentricity
0.00094
Inclination
97.2439°
RAAN
85.498°
Arg. of periapsis
318.5721°
True anomaly
41.55218°
Mean anomaly
41.4811°
Eccentric anomaly
41.51664°
Mean motion
3.83216 °/min
Orbital period
93.94 mins
BSTAR
0.00037634
Loading maneuver chart data...
Computing Atmospheric mass density...

Documentation

Showing up to 5 results
|